Theta_e
335 337 337 337 338 337 336 339 339 338 338 340 338 337 335 338 342 342 341 347 347 350 350 348 347 347 347 347 346 346 347 344 342 344 343 342 341 341 339 337 337 334 332 332
335 337 337 334 337 338 338 339 335 336 336 336 335 336 336 335 337 339 338 348 348 350 347 348 347 347 347 348 347 347 346 343 342 340 340 340 340 339 337 335 334 333 330 330
336 337 337 336 336 335 332 333 334 335 334 334 333 334 337 340 339 339 342 344 346 348 350 348 346 347 346 346 345 344 343 343 340 340 342 340 337 336 336 333 333 330 329 325
336 335 335 336 331 331 332 331 331 332 332 332 332 335 337 340 342 342 343 342 341 348 349 347 346 345 346 345 342 342 342 342 343 342 339 338 338 335 334 334 331 330 326 322
331 331 332 332 332 331 331 330 331 331 332 333 333 336 337 339 341 341 345 338 338 344 348 347 345 344 343 344 343 342 341 341 341 342 339 336 335 332 332 331 326 323 324 321
331 331 331 331 331 330 331 332 335 334 335 343 338 339 339 341 342 340 339 338 340 341 346 347 344 343 343 343 342 340 340 340 339 339 336 329 326 325 328 325 318 322 322 322
332 332 334 333 334 334 333 335 337 338 338 341 340 341 341 344 342 339 338 343 343 346 346 345 343 342 342 342 342 342 340 339 336 334 328 327 327 326 328 322 319 315 317 319
333 332 333 335 333 336 334 335 336 339 339 340 335 340 342 340 340 339 339 349 350 348 346 344 343 341 339 341 341 340 339 335 331 326 327 327 329 329 324 321 318 316 318 318
338 335 333 335 334 334 332 334 335 337 339 346 341 341 345 344 340 337 336 342 350 344 345 344 341 338 337 336 334 335 329 327 325 327 328 327 327 325 322 319 317 320 318 318
336 336 333 333 334 334 335 336 341 342 351 351 343 343 349 346 340 338 340 341 344 346 343 341 337 334 333 331 327 326 326 326 327 327 327 328 327 324 321 319 319 319 319 319
334 339 341 338 335 334 334 334 337 341 343 353 352 351 343 342 341 344 340 339 342 346 341 335 333 332 329 327 326 325 327 326 326 325 326 326 325 323 320 319 318 318 320 320
340 340 341 338 334 332 333 336 342 345 343 346 346 349 343 339 340 338 337 343 342 338 335 333 331 328 328 326 327 327 327 327 327 327 326 326 325 324 322 320 318 319 320 320
338 335 334 329 330 338 338 338 338 340 343 346 350 344 341 341 336 335 335 343 338 334 332 331 329 329 328 328 328 328 327 327 326 326 326 326 325 324 322 321 320 319 319 320
337 334 335 336 336 336 338 336 336 341 345 346 344 344 338 337 340 336 338 336 332 333 330 327 329 328 328 328 327 326 326 326 327 326 324 324 322 322 322 322 321 320 319 319
341 346 339 336 336 336 335 336 340 341 341 345 344 343 337 341 344 339 337 335 332 332 331 328 329 328 329 327 327 327 327 327 326 323 322 322 322 322 322 322 322 322 321 320
342 347 341 341 336 336 337 339 340 339 338 340 342 341 334 333 336 335 335 334 333 332 331 329 329 328 330 330 330 329 328 325 323 322 323 323 322 322 322 323 322 322 322 322
342 343 342 342 338 339 338 341 341 339 337 337 340 339 333 332 332 332 335 333 330 331 331 329 329 328 332 328 325 325 324 324 323 323 323 323 323 323 322 322 324 324 324 323
341 340 342 342 342 346 342 339 336 337 335 333 333 332 332 331 331 331 329 330 331 331 330 330 331 329 324 324 323 323 323 323 323 324 324 324 324 325 324 323 323 324 324 323
341 341 341 346 341 340 341 340 337 336 337 334 332 333 332 332 331 332 329 328 326 326 326 325 327 330 328 327 326 325 327 326 325 323 323 323 325 324 324 323 323 324 324 326
340 341 342 338 341 341 342 339 336 336 338 333 333 335 334 332 333 329 325 327 328 327 328 331 328 325 323 325 326 323 320 318 316 316 318 320 320 321 320 320 319 322 322 321
345 344 347 345 343 340 339 337 333 340 341 334 333 333 334 335 334 332 328 329 327 328 330 325 322 320 318 319 320 317 315 313 313 313 314 314 315 314 315 314 314 316 316 318
340 342 341 344 344 344 337 336 338 342 337 334 332 331 333 332 330 330 331 331 330 329 326 323 320 317 315 313 315 313 310 309 308 309 310 310 311 311 311 308 312 313 314 315
339 342 344 346 344 344 339 338 340 337 334 331 330 329 329 329 330 331 330 328 325 323 322 321 319 316 313 310 309 308 305 304 303 304 304 304 305 305 300 304 304 307 307 308
338 339 344 336 340 341 341 338 337 335 332 333 330 331 329 332 332 330 328 325 323 321 319 318 317 315 310 308 306 303 301 300 300 300 300 300 300 298 299 300 300 300 300 301
339 339 341 337 338 337 335 330 337 335 330 330 329 330 333 332 330 328 326 324 321 318 316 314 313 312 309 305 303 300 299 298 298 298 298 299 297 297 298 298 298 297 298 296
337 341 339 335 335 337 333 331 330 331 330 332 332 329 328 328 327 325 324 321 318 314 312 309 307 306 305 302 300 299 298 297 297 297 297 297 296 296 296 297 297 296 297 296
Wind_Speed
16 14 5 13 17 16 21 20 27 18 19 16 19 15 9 10 15 9 5 9 10 14 17 16 11 11 12 12 10 13 14 13 13 13 13 11 10 8 6 5 5 5 3 4
15 12 10 17 13 23 21 25 18 18 17 11 13 19 12 7 8 7 13 13 12 19 14 17 13 13 13 14 14 15 15 11 11 12 9 8 9 9 9 8 6 4 3 3
16 16 23 19 17 12 15 15 12 16 19 21 18 16 10 17 4 16 24 34 13 18 17 15 16 16 15 14 15 17 14 9 8 9 8 8 9 8 6 6 7 6 4 5
14 19 21 20 12 13 15 16 18 17 17 16 18 15 2 12 10 11 19 10 25 18 20 16 17 15 18 16 15 15 14 9 7 4 6 6 6 7 8 10 11 9 6 4
12 11 12 13 12 11 16 19 21 22 19 20 22 8 10 13 4 9 19 21 23 11 20 17 17 20 19 17 16 14 12 8 6 4 4 3 5 10 8 13 6 3 5 3
19 18 14 15 15 13 13 16 20 20 15 8 10 6 5 7 8 10 13 18 16 24 20 18 23 21 20 18 15 12 10 9 7 7 9 12 14 11 11 9 3 5 2 8
18 16 20 9 13 11 14 15 10 14 11 10 7 6 8 6 16 25 2 22 23 19 19 17 17 18 22 22 19 18 14 11 11 10 9 10 9 7 5 3 8 6 5 7
16 12 8 8 16 14 12 13 11 19 12 18 12 6 6 13 16 19 21 20 20 12 10 16 15 18 20 27 22 22 19 15 11 9 9 8 4 3 10 5 3 3 4 6
14 11 17 8 7 14 12 13 18 16 15 14 13 14 20 19 20 18 23 12 22 24 15 17 14 18 17 18 14 24 19 15 12 11 10 6 5 4 7 5 2 3 3 5
8 13 14 18 16 14 18 7 13 6 9 11 11 17 5 11 10 14 22 28 18 19 21 12 13 16 16 16 14 20 17 15 11 10 9 10 8 3 2 2 4 4 5 6
8 8 13 16 15 19 16 14 7 6 3 4 9 6 5 8 2 8 12 20 24 19 16 15 14 19 18 19 15 12 13 12 11 9 10 8 7 2 2 3 5 6 7 8
9 5 10 18 21 20 14 9 12 9 13 6 10 5 9 9 5 6 8 14 12 16 12 11 17 19 17 20 20 16 13 9 8 7 9 7 7 4 0 5 7 8 9 10
7 4 10 11 12 16 10 10 13 12 5 12 9 5 6 3 7 11 15 12 12 8 20 24 14 15 14 15 18 18 12 8 2 3 3 8 6 3 4 6 8 9 11 12
5 4 9 11 15 15 16 15 13 8 7 11 9 8 12 7 8 6 9 13 13 13 15 18 18 10 9 10 9 8 7 3 4 1 4 3 2 3 6 8 9 10 12 14
3 6 11 14 16 16 16 10 9 9 6 6 8 7 10 12 12 12 10 12 14 13 14 6 12 16 18 14 7 6 6 3 7 6 4 1 5 8 8 9 11 12 14 15
5 7 10 15 18 20 10 2 4 4 3 10 6 4 8 10 9 10 9 11 13 11 7 4 5 20 22 9 9 9 11 8 6 2 4 6 7 8 11 13 15 17 18 17
8 5 8 13 18 16 11 1 2 4 5 8 10 6 6 6 6 4 9 7 11 13 15 15 14 19 19 1 14 11 7 5 5 4 6 6 8 7 12 13 17 15 15 17
5 6 7 11 15 15 4 7 2 4 6 4 3 1 4 3 1 4 5 9 10 9 16 16 16 11 8 11 10 6 2 4 4 4 5 7 11 14 13 14 16 19 20 20
7 4 6 8 10 5 10 7 6 6 6 7 6 4 5 7 8 9 11 9 6 6 7 9 17 20 20 18 12 10 16 20 20 17 15 15 15 17 17 17 19 19 19 20
8 6 6 10 10 11 7 10 9 9 7 8 7 8 8 6 2 3 8 9 10 11 14 21 20 18 17 14 15 16 16 17 17 16 16 15 15 15 17 16 18 18 19 19
10 8 11 11 11 6 9 6 5 7 1 10 9 10 11 5 5 6 8 11 12 14 17 17 17 16 12 11 10 13 13 14 13 12 13 14 14 16 16 17 18 18 18 17
9 7 9 8 11 7 5 5 9 4 7 9 10 8 12 10 10 10 10 9 10 10 9 12 13 13 12 12 11 12 12 12 13 14 15 17 16 17 18 18 20 18 16 11
5 3 4 8 2 4 2 3 5 7 6 7 6 3 7 9 10 12 9 7 7 8 8 9 11 11 11 11 11 11 12 13 14 13 15 17 16 16 19 19 20 20 13 12
2 11 6 8 8 19 13 14 9 9 8 5 6 2 5 11 12 11 9 7 7 8 7 7 7 8 8 8 10 11 12 14 16 16 16 15 14 18 17 17 16 17 18 13
9 6 12 5 7 12 9 14 16 6 6 5 3 5 10 11 10 10 7 6 7 8 7 7 6 6 6 6 8 9 11 14 15 16 17 15 17 18 17 15 14 14 15 9
3 4 5 4 3 4 6 7 21 22 4 6 12 10 8 8 10 8 7 5 5 7 6 7 6 6 6 6 7 9 11 12 14 15 17 17 17 16 17 17 15 16 17 15
Wind_Direction
244 247 47 321 225 244 225 250 261 214 218 206 211 267 299 215 215 214 294 165 174 167 140 142 133 142 143 130 146 143 138 154 159 162 171 174 178 181 173 172 147 197 189 184
239 273 325 283 192 236 237 246 295 325 295 264 267 263 269 285 231 154 167 222 177 128 138 134 145 149 126 130 140 142 145 157 168 165 165 167 177 175 161 155 153 137 116 88
261 213 240 257 267 275 277 282 268 283 305 294 278 283 284 348 297 45 17 336 173 146 141 145 156 137 141 137 147 144 146 141 118 123 132 127 129 146 162 166 155 139 113 54
275 276 192 228 289 277 286 317 321 294 302 299 315 298 312 44 41 63 81 341 323 163 150 152 143 149 129 144 149 146 146 135 120 120 145 163 185 169 182 163 146 151 140 130
272 307 303 289 280 326 309 308 304 301 290 287 285 285 322 329 251 182 167 168 220 251 150 151 142 148 148 151 143 148 136 137 134 120 121 174 110 162 154 131 107 161 198 185
287 293 286 271 272 270 291 296 295 284 296 329 282 239 290 317 312 289 206 198 191 242 135 139 135 136 129 141 144 151 160 148 136 118 93 72 68 58 65 51 17 52 212 171
246 258 264 313 327 315 308 316 296 296 295 305 39 155 237 111 210 250 123 186 209 155 138 134 139 154 165 155 155 156 147 145 127 120 106 84 70 64 91 56 42 13 347 74
288 294 54 24 294 286 316 303 295 296 307 276 282 263 23 38 28 8 1 74 93 88 171 145 146 175 159 153 166 156 153 135 130 129 114 97 81 182 81 70 3 320 2 3
306 308 330 257 258 311 301 291 311 292 316 332 318 341 76 32 20 2 337 334 152 182 154 142 159 179 153 144 143 144 125 128 151 147 139 140 120 45 27 20 338 355 7 327
317 307 307 307 312 289 281 48 271 353 322 301 279 304 42 41 7 14 338 329 278 137 122 186 159 124 123 132 121 119 139 155 160 156 170 152 137 156 94 280 254 277 289 299
307 320 310 332 309 307 315 305 330 217 261 266 300 290 251 292 131 7 358 313 300 144 156 138 151 136 139 123 129 133 142 150 155 180 176 162 140 118 22 308 275 273 279 282
49 325 302 297 292 278 258 322 348 307 301 264 325 324 43 43 38 89 268 3 29 14 21 162 132 136 147 151 149 167 165 156 160 163 136 154 152 135 281 292 279 272 280 278
8 317 307 306 308 46 348 301 285 311 315 291 274 312 44 96 350 13 23 57 68 44 8 341 130 145 158 143 140 152 160 167 145 102 157 157 149 181 250 269 277 273 276 283
107 263 269 283 296 295 299 315 317 9 322 316 301 323 348 353 339 355 32 71 94 69 50 356 345 108 89 92 131 147 155 166 108 105 64 78 37 268 261 266 271 269 269 275
138 277 294 291 297 304 287 307 357 324 335 295 344 6 355 32 54 86 104 109 106 79 92 39 335 336 319 146 149 194 185 129 80 77 86 160 240 244 249 258 263 269 271 270
188 278 292 296 288 269 308 19 336 311 250 321 145 168 69 49 64 75 97 121 117 107 111 141 275 274 297 269 183 110 82 83 72 113 200 226 234 255 260 259 260 261 259 262
256 276 301 290 297 311 285 56 285 302 347 338 308 61 101 86 71 72 136 137 153 164 172 192 207 255 277 105 75 80 101 117 176 208 244 254 279 275 295 298 305 299 294 292
289 288 293 281 283 279 79 103 108 102 108 89 83 39 153 157 264 249 211 201 207 207 203 219 218 183 111 93 91 101 131 181 228 266 317 330 327 331 313 298 300 307 307 303
170 269 290 288 294 312 126 150 184 202 185 166 148 189 189 198 197 219 224 242 93 96 91 96 95 71 56 38 25 11 29 40 37 20 7 355 6 0 0 360 349 335 323 316
174 190 250 284 279 289 106 176 207 170 229 171 181 193 200 201 272 122 151 126 89 66 61 68 71 70 55 36 38 46 39 31 18 5 353 347 346 342 336 349 350 338 344 344
207 220 226 243 248 235 152 160 178 219 20 175 208 221 216 176 186 107 106 91 79 82 86 83 76 70 55 41 52 51 37 23 3 351 346 344 344 338 329 340 337 333 335 334
248 228 248 250 259 304 164 168 220 100 155 203 211 219 134 156 146 105 89 91 82 75 87 83 81 79 65 49 49 51 33 9 358 351 347 340 336 333 337 336 320 320 305 318
225 283 284 14 3 187 285 261 126 159 200 208 225 188 162 154 122 127 117 112 107 108 102 97 107 95 70 56 48 38 19 3 352 352 348 334 338 341 340 325 324 314 341 336
201 40 35 23 350 351 356 329 304 178 226 190 195 171 206 139 132 122 128 141 138 123 106 102 102 88 68 50 41 30 13 2 352 350 340 334 343 339 329 322 325 348 337 358
305 128 183 226 262 280 345 353 317 301 222 186 88 69 100 102 114 128 135 155 142 126 105 86 73 65 69 45 34 25 11 2 354 348 337 342 340 330 324 329 340 334 321 332
280 60 235 258 351 184 265 246 252 284 151 81 97 88 85 116 124 145 146 142 127 91 75 72 56 41 30 25 18 15 6 359 351 342 339 336 329 329 331 331 326 328 319 319